Lee's Summit, MO

12:59 AM CST on February 25, 2017 (GMT -0600)
Lee's Summit Municipal

Weather History for KLXT - November, 2011

Change the Weather History Date:

Tuesday, November 8, 2011

  Actual Average (KMKC) Record (KMKC)
Temperature  
Mean Temperature 44 °F -  
Max Temperature 46 °F 54 °F 82 °F (2006)
Min Temperature 42 °F 38 °F 28 °F (2000)
Degree Days  
Heating Degree Days 21    
Moisture  
Dew Point 44 °F    
Average Humidity 94    
Maximum Humidity 100    
Minimum Humidity 87    
Precipitation  
Precipitation 0.94 in - - ()
Sea Level Pressure  
Sea Level Pressure 29.90 in    
Wind  
Wind Speed 10 mph (NE)    
Max Wind Speed 20 mph    
Max Gust Speed 26 mph    
Visibility 3 miles    
Events Fog , Rain , Thunderstorm    
Averages and records for this station are not official NWS values.
T = Trace of Precipitation, MM = Missing Value Source: NWS Daily Summary

Daily Weather History Graph

Daily Weather History Graph

Search for Another Location

Airport or City:

Trip Planner

Search our weather history database for the weather conditions in past years. The results will help you decide how hot, cold, wet, or windy it might be!

Date:

Astronomy

Nov. 08, 2011 Rise Set
Actual Time 6:52 AM CST 5:09 PM CST
Civil Twilight 6:24 AM CST 5:37 PM CST
Nautical Twilight 5:52 AM CST 6:09 PM CST
Astronomical Twilight 5:20 AM CST 6:40 PM CST
Moon 3:49 PM CST (11/8) 4:52 AM CST (11/8)
Length of Visible Light 11h 13m
Length of Day
10h 17m
Waxing Gibbous, 96% of the Moon is Illuminated
Nov 8
Waxing Gibbous
Nov 10
Full
Nov 18
Last Quarter
Nov 25
New
Dec 2
First Quarter

Hourly Weather History & Observations

Time (CST) Temp. Windchill Dew Point Humidity Pressure Visibility Wind Dir Wind Speed Gust Speed Precip Events Conditions
12:05 AM 46.4 °F 41.9 °F 44.6 °F 93% 29.94 in 3.0 mi ENE 9.2 mph - 0.09 in Rain Heavy Rain
12:12 AM 46.4 °F 42.4 °F 44.6 °F 93% 29.94 in 4.0 mi ENE 8.1 mph - 0.12 in Rain Rain
12:22 AM 46.4 °F 43.5 °F 44.6 °F 93% 29.94 in 6.0 mi East 5.8 mph - 0.13 in Rain Light Rain
12:29 AM 46.4 °F 43.5 °F 44.6 °F 93% 29.94 in 7.0 mi East 5.8 mph - 0.14 in Rain Light Rain
12:53 AM 46.9 °F - 45.0 °F 93% 29.94 in 6.0 mi ENE 5.8 mph - 0.20 in Rain Rain
1:24 AM 46.4 °F 44.3 °F 44.6 °F 93% 29.95 in 4.0 mi East 4.6 mph - 0.14 in Rain Heavy Rain
1:33 AM 46.4 °F 43.5 °F 44.6 °F 93% 29.94 in 4.0 mi East 5.8 mph - 0.20 in Rain Heavy Rain
1:40 AM 46.4 °F 41.9 °F 44.6 °F 93% 29.93 in 4.0 mi ENE 9.2 mph - 0.23 in Rain , Thunderstorm Rain
1:49 AM 46.4 °F 43.5 °F 44.6 °F 93% 29.93 in 4.0 mi ENE 5.8 mph - 0.27 in Rain Rain
1:53 AM 46.9 °F - 45.0 °F 93% 29.93 in 4.0 mi ENE 9.2 mph - 0.28 in Rain Rain
2:11 AM 46.4 °F 40.7 °F 44.6 °F 93% 29.91 in 4.0 mi ENE 12.7 mph - 0.07 in Rain Rain
2:24 AM 46.4 °F 41.1 °F 44.6 °F 93% 29.90 in 5.0 mi East 11.5 mph - 0.11 in Rain Rain
2:53 AM 46.9 °F - 45.0 °F 93% 29.87 in 5.0 mi East 16.1 mph - 0.19 in Rain Rain
3:13 AM 46.4 °F 42.9 °F 46.4 °F 100% 29.89 in 10.0 mi ESE 6.9 mph - 0.01 in Rain Light Rain
3:53 AM 46.9 °F - 46.0 °F 97% 29.91 in 10.0 mi North 6.9 mph - 0.01 in   Overcast
4:41 AM 46.4 °F 40.7 °F 44.6 °F 93% 29.87 in 2.0 mi NNE 12.7 mph - N/A   Overcast
4:53 AM 46.0 °F 41.4 °F 45.0 °F 96% 29.89 in 4.0 mi NNE 9.2 mph - N/A   Overcast
5:21 AM 46.4 °F 43.5 °F 44.6 °F 93% 29.90 in 1.8 mi North 5.8 mph - N/A   Overcast
5:46 AM 46.4 °F 43.5 °F 44.6 °F 93% 29.92 in 3.0 mi North 5.8 mph - N/A   Overcast
6:40 AM 46.4 °F 42.4 °F 44.6 °F 93% 29.93 in 2.5 mi North 8.1 mph - N/A   Overcast
6:48 AM 46.4 °F 41.5 °F 44.6 °F 93% 29.92 in 0.8 mi North 10.4 mph - N/A   Overcast
6:49 AM 46.0 °F 41.4 °F 44.1 °F 93% 29.93 in 0.8 mi North 9.2 mph - N/A   Overcast
6:57 AM 46.4 °F 42.9 °F 44.6 °F 93% 29.93 in 0.5 mi North 6.9 mph - N/A Fog Fog
7:05 AM 46.4 °F 41.9 °F 44.6 °F 93% 29.93 in 0.2 mi North 9.2 mph - N/A Fog Fog
7:53 AM 46.0 °F 41.9 °F 45.0 °F 96% 29.96 in 0.2 mi NE 8.1 mph - N/A Fog Fog
8:40 AM 46.4 °F 42.9 °F 44.6 °F 93% 29.96 in 0.2 mi NE 6.9 mph - N/A Fog Fog
8:53 AM 46.0 °F 42.5 °F 45.0 °F 96% 29.97 in 0.2 mi NNE 6.9 mph - N/A Fog Fog
9:53 AM 46.0 °F 41.0 °F 45.0 °F 96% 29.97 in 0.2 mi ENE 10.4 mph - N/A Fog Fog
10:03 AM 46.4 °F 41.9 °F 44.6 °F 93% 29.96 in 0.5 mi ENE 9.2 mph - N/A Fog Fog
10:21 AM 46.4 °F 43.5 °F 44.6 °F 93% 29.96 in 1.0 mi NNE 5.8 mph - 0.00 in   Overcast
10:29 AM 46.4 °F 42.9 °F 44.6 °F 93% 29.96 in 0.8 mi NE 6.9 mph - 0.00 in Rain Light Rain
10:39 AM 46.4 °F 41.9 °F 44.6 °F 93% 29.95 in 1.8 mi ENE 9.2 mph - 0.00 in Rain Light Rain
10:42 AM 46.4 °F 41.1 °F 44.6 °F 93% 29.95 in 3.0 mi ENE 11.5 mph - 0.00 in Rain Light Rain
10:53 AM 46.0 °F 39.9 °F 45.0 °F 96% 29.92 in 2.5 mi ENE 13.8 mph - 0.01 in Rain Light Rain
11:42 AM 46.4 °F 41.1 °F 44.6 °F 93% 29.93 in 1.2 mi ENE 11.5 mph - 0.00 in   Overcast
11:53 AM 46.9 °F - 46.0 °F 97% 29.94 in 0.5 mi ENE 8.1 mph - 0.00 in Fog Fog
12:11 PM 46.4 °F 40.4 °F 44.6 °F 93% 29.91 in 0.2 mi ENE 13.8 mph - N/A Fog Fog
12:28 PM 46.4 °F 40.4 °F 44.6 °F 93% 29.91 in 0.5 mi ENE 13.8 mph - N/A Fog Fog
12:53 PM 46.9 °F - 46.0 °F 97% 29.91 in 0.8 mi NE 11.5 mph - N/A   Overcast
1:40 PM 46.4 °F 41.1 °F 46.4 °F 100% 29.88 in 1.0 mi NE 11.5 mph - N/A   Overcast
1:53 PM 46.9 °F - 46.0 °F 97% 29.89 in 1.2 mi NE 12.7 mph - N/A   Overcast
2:07 PM 46.4 °F 41.9 °F 46.4 °F 100% 29.87 in 1.2 mi NE 9.2 mph - N/A   Overcast
2:31 PM 46.4 °F 40.7 °F 46.4 °F 100% 29.86 in 2.5 mi NE 12.7 mph - N/A   Overcast
2:50 PM 46.4 °F 41.1 °F 46.4 °F 100% 29.86 in 1.8 mi NE 11.5 mph - N/A   Overcast
2:53 PM 46.9 °F - 46.0 °F 97% 29.86 in 1.5 mi NE 11.5 mph - N/A   Overcast
3:53 PM 46.9 °F - 45.0 °F 93% 29.85 in 1.8 mi NNE 11.5 mph - 0.01 in   Overcast
4:41 PM 46.4 °F 40.7 °F 44.6 °F 93% 29.85 in 3.0 mi NNE 12.7 mph - 0.00 in   Overcast
5:16 PM 46.4 °F 40.1 °F 44.6 °F 93% 29.86 in 1.8 mi NNE 15.0 mph - 0.00 in   Overcast
5:53 PM 45.0 °F 37.9 °F 44.1 °F 97% 29.87 in 2.0 mi NNE 16.1 mph - 0.01 in Rain Light Rain
6:04 PM 44.6 °F 38.8 °F 44.6 °F 100% 29.86 in 3.0 mi NNE 11.5 mph - 0.01 in   Overcast
6:30 PM 44.6 °F 38.4 °F 42.8 °F 93% 29.86 in 4.0 mi NNE 12.7 mph - 0.01 in   Overcast
6:53 PM 45.0 °F 38.5 °F 43.0 °F 93% 29.86 in 2.5 mi NNE 13.8 mph - 0.01 in Rain Light Rain
7:16 PM 44.6 °F 37.8 °F 42.8 °F 93% 29.84 in 3.0 mi NE 15.0 mph - 0.00 in   Overcast
7:32 PM 44.6 °F 37.4 °F 42.8 °F 93% 29.84 in 3.0 mi NNE 16.1 mph 21.9 mph 0.00 in   Overcast
7:53 PM 44.1 °F 37.4 °F 43.0 °F 96% 29.85 in 3.0 mi North 13.8 mph - 0.01 in Rain Light Rain
8:08 PM 44.6 °F 38.1 °F 42.8 °F 93% 29.83 in 2.5 mi NNE 13.8 mph 23.0 mph 0.00 in   Overcast
8:25 PM 42.8 °F 34.8 °F 42.8 °F 100% 29.83 in 3.0 mi North 17.3 mph 24.2 mph 0.01 in   Overcast
8:53 PM 43.0 °F 35.4 °F 41.0 °F 93% 29.83 in 4.0 mi North 16.1 mph - 0.02 in   Overcast
9:31 PM 42.8 °F 35.4 °F 41.0 °F 93% 29.83 in 2.5 mi NNW 15.0 mph - 0.07 in Rain Heavy Rain
9:44 PM 42.8 °F 34.8 °F 39.2 °F 87% 29.83 in 5.0 mi North 17.3 mph 23.0 mph 0.09 in Rain Light Rain
9:53 PM 42.1 °F 34.2 °F 39.9 °F 92% 29.84 in 7.0 mi North 16.1 mph 23.0 mph 0.09 in Rain Light Rain
10:53 PM 42.1 °F 34.2 °F 39.9 °F 92% 29.86 in 5.0 mi NNW 16.1 mph - 0.07 in Rain Rain
11:30 PM 42.8 °F 34.3 °F 39.2 °F 87% 29.84 in 10.0 mi North 19.6 mph 26.5 mph 0.03 in Rain Light Rain
11:53 PM 42.1 °F 33.6 °F 39.0 °F 89% 29.86 in 10.0 mi NNW 18.4 mph 26.5 mph 0.03 in   Overcast